QPF
0.00 0.00 0.00 0.00 0.00 0.29 0.85 0.10 0.27 0.09 0.03 0.00 0.00 0.00 0.00 0.01 0.01 0.02 0.00 0.00 0.00 0.00 0.00 0.00 0.00 0.00 0.00 0.00 0.00 0.00 0.00 0.00 0.00 0.00 0.00 0.00 0.00 0.00 0.01 0.00 0.00 0.01 0.02 0.02 0.01 0.00 0.00 0.00 0.00
0.00 0.00 0.00 0.00 0.01 0.44 0.61 0.11 0.02 0.01 0.04 0.00 0.01 0.00 0.00 0.01 0.02 0.00 0.00 0.00 0.00 0.00 0.00 0.00 0.01 0.00 0.00 0.00 0.00 0.00 0.00 0.00 0.00 0.00 0.00 0.00 0.00 0.00 0.00 0.00 0.00 0.02 0.07 0.05 0.04 0.00 0.00 0.00 0.00
0.00 0.00 0.01 0.03 0.06 0.51 0.25 0.03 0.00 0.01 0.01 0.00 0.00 0.00 0.00 0.00 0.00 0.00 0.00 0.00 0.00 0.00 0.00 0.00 0.00 0.00 0.00 0.00 0.00 0.00 0.00 0.00 0.00 0.00 0.00 0.00 0.01 0.00 0.00 0.00 0.00 0.05 0.01 0.02 0.07 0.01 0.00 0.00 0.00
0.00 0.00 0.04 0.13 0.26 0.47 0.05 0.00 0.00 0.03 0.01 0.02 0.00 0.00 0.00 0.00 0.00 0.00 0.00 0.00 0.00 0.00 0.00 0.00 0.00 0.00 0.00 0.00 0.01 0.00 0.00 0.02 0.01 0.02 0.02 0.00 0.01 0.01 0.00 0.01 0.01 0.01 0.00 0.00 0.00 0.00 0.00 0.00 0.00
0.00 0.04 0.13 0.17 0.16 0.10 0.04 0.04 0.03 0.04 0.04 0.04 0.00 0.00 0.00 0.00 0.00 0.00 0.00 0.00 0.00 0.00 0.00 0.00 0.01 0.01 0.00 0.00 0.00 0.00 0.00 0.00 0.00 0.02 0.00 0.01 0.01 0.01 0.02 0.01 0.01 0.00 0.00 0.00 0.00 0.00 0.00 0.00 0.00
0.02 0.08 0.12 0.16 0.04 0.00 0.00 0.02 0.00 0.02 0.03 0.01 0.00 0.00 0.00 0.00 0.00 0.00 0.00 0.00 0.00 0.00 0.00 0.00 0.00 0.00 0.00 0.00 0.00 0.00 0.00 0.00 0.02 0.01 0.00 0.00 0.00 0.00 0.00 0.00 0.00 0.00 0.00 0.00 0.00 0.00 0.00 0.00 0.00
0.08 0.17 0.12 0.19 0.01 0.01 0.00 0.00 0.00 0.04 0.03 0.00 0.00 0.00 0.00 0.00 0.00 0.00 0.00 0.00 0.00 0.00 0.00 0.00 0.00 0.00 0.00 0.00 0.00 0.00 0.00 0.01 0.00 0.00 0.00 0.00 0.00 0.00 0.00 0.00 0.00 0.00 0.00 0.00 0.00 0.00 0.00 0.00 0.00
0.05 0.17 0.13 0.08 0.01 0.00 0.00 0.00 0.04 0.03 0.03 0.02 0.02 0.00 0.00 0.00 0.00 0.01 0.00 0.01 0.00 0.00 0.00 0.00 0.00 0.00 0.00 0.00 0.00 0.00 0.00 0.00 0.00 0.00 0.02 0.03 0.00 0.00 0.00 0.00 0.00 0.00 0.00 0.00 0.00 0.00 0.00 0.00 0.00
0.07 0.20 0.05 0.03 0.00 0.00 0.00 0.00 0.03 0.14 0.07 0.08 0.04 0.00 0.00 0.00 0.00 0.00 0.00 0.01 0.00 0.01 0.01 0.00 0.00 0.00 0.00 0.00 0.00 0.00 0.02 0.12 0.13 0.12 0.06 0.09 0.02 0.02 0.00 0.00 0.00 0.00 0.00 0.00 0.00 0.00 0.00 0.00 0.00
0.60 0.08 0.05 0.02 0.01 0.00 0.00 0.00 0.02 0.29 0.05 0.03 0.02 0.00 0.00 0.00 0.00 0.00 0.00 0.00 0.01 0.02 0.03 0.00 0.00 0.00 0.00 0.00 0.00 0.00 0.00 0.05 0.12 0.19 0.15 0.01 0.04 0.01 0.00 0.00 0.00 0.00 0.01 0.05 0.05 0.02 0.00 0.00 0.00
0.76 0.13 0.07 0.01 0.00 0.00 0.00 0.01 0.08 0.25 0.07 0.02 0.00 0.00 0.00 0.00 0.00 0.00 0.00 0.00 0.00 0.00 0.00 0.00 0.00 0.00 0.00 0.00 0.00 0.00 0.00 0.01 0.02 0.01 0.01 0.02 0.04 0.02 0.03 0.04 0.02 0.00 0.02 0.07 0.13 0.13 0.04 0.00 0.00
0.12 0.09 0.05 0.05 0.00 0.00 0.00 0.02 0.05 0.33 0.04 0.00 0.00 0.00 0.00 0.00 0.00 0.00 0.00 0.00 0.00 0.00 0.00 0.00 0.00 0.00 0.00 0.01 0.01 0.00 0.00 0.00 0.00 0.00 0.01 0.01 0.02 0.12 0.11 0.13 0.06 0.03 0.02 0.01 0.04 0.04 0.01 0.01 0.00
0.08 0.06 0.02 0.04 0.02 0.01 0.02 0.00 0.01 0.02 0.03 0.00 0.00 0.00 0.00 0.00 0.00 0.00 0.00 0.00 0.00 0.00 0.00 0.00 0.00 0.00 0.00 0.00 0.00 0.00 0.00 0.00 0.00 0.00 0.02 0.06 0.04 0.02 0.05 0.10 0.11 0.09 0.05 0.03 0.02 0.02 0.01 0.00 0.00
0.06 0.05 0.02 0.04 0.01 0.02 0.04 0.11 0.04 0.00 0.00 0.00 0.00 0.00 0.00 0.00 0.00 0.00 0.00 0.00 0.00 0.00 0.00 0.00 0.00 0.00 0.00 0.00 0.00 0.00 0.00 0.00 0.00 0.00 0.02 0.03 0.02 0.02 0.03 0.06 0.07 0.02 0.06 0.04 0.02 0.00 0.01 0.00 0.00
0.02 0.08 0.03 0.01 0.00 0.00 0.02 0.22 0.09 0.01 0.01 0.02 0.00 0.00 0.00 0.00 0.00 0.00 0.00 0.00 0.00 0.00 0.00 0.00 0.00 0.00 0.00 0.00 0.00 0.00 0.00 0.00 0.01 0.01 0.08 0.06 0.06 0.01 0.04 0.01 0.03 0.05 0.02 0.01 0.06 0.03 0.00 0.00 0.00
0.00 0.01 0.02 0.00 0.00 0.00 0.02 0.19 0.18 0.02 0.02 0.04 0.00 0.00 0.00 0.00 0.00 0.00 0.00 0.00 0.00 0.00 0.00 0.00 0.00 0.00 0.00 0.00 0.00 0.00 0.00 0.01 0.02 0.09 0.06 0.02 0.03 0.01 0.01 0.01 0.00 0.02 0.02 0.02 0.03 0.05 0.02 0.00 0.00
0.00 0.00 0.00 0.02 0.00 0.00 0.00 0.12 0.63 0.08 0.05 0.03 0.01 0.00 0.00 0.00 0.00 0.00 0.00 0.00 0.00 0.00 0.00 0.00 0.00 0.00 0.00 0.00 0.00 0.00 0.01 0.02 0.05 0.07 0.12 0.05 0.01 0.01 0.03 0.01 0.00 0.00 0.00 0.01 0.01 0.00 0.00 0.01 0.00
0.00 0.00 0.00 0.00 0.00 0.00 0.02 0.05 0.73 0.53 0.04 0.03 0.00 0.00 0.00 0.00 0.00 0.00 0.00 0.00 0.00 0.00 0.00 0.00 0.00 0.00 0.00 0.00 0.00 0.00 0.01 0.03 0.04 0.05 0.11 0.05 0.04 0.00 0.02 0.00 0.02 0.03 0.00 0.00 0.01 0.00 0.00 0.01 0.00
0.00 0.00 0.00 0.00 0.01 0.03 0.09 0.07 0.33 0.25 0.02 0.00 0.00 0.00 0.00 0.00 0.00 0.00 0.00 0.00 0.00 0.00 0.00 0.00 0.00 0.00 0.00 0.00 0.00 0.00 0.01 0.00 0.05 0.07 0.13 0.08 0.09 0.02 0.01 0.01 0.02 0.06 0.00 0.00 0.00 0.00 0.00 0.00 0.00
0.00 0.00 0.00 0.00 0.01 0.03 0.05 0.01 0.01 0.00 0.00 0.00 0.00 0.00 0.00 0.00 0.00 0.00 0.00 0.00 0.00 0.00 0.00 0.00 0.00 0.00 0.00 0.00 0.00 0.00 0.01 0.02 0.05 0.13 0.16 0.03 0.05 0.01 0.01 0.04 0.01 0.04 0.01 0.00 0.00 0.00 0.00 0.00 0.00
0.00 0.00 0.00 0.00 0.00 0.03 0.06 0.06 0.06 0.04 0.01 0.00 0.00 0.00 0.00 0.00 0.00 0.00 0.00 0.00 0.00 0.00 0.00 0.00 0.00 0.00 0.00 0.00 0.00 0.02 0.03 0.06 0.08 0.07 0.07 0.03 0.00 0.00 0.00 0.00 0.01 0.00 0.00 0.00 0.00 0.00 0.00 0.00 0.00
0.00 0.00 0.00 0.00 0.00 0.00 0.02 0.05 0.09 0.05 0.01 0.04 0.01 0.01 0.00 0.00 0.00 0.00 0.00 0.00 0.00 0.00 0.00 0.00 0.00 0.00 0.00 0.00 0.01 0.01 0.02 0.04 0.03 0.04 0.06 0.04 0.00 0.00 0.00 0.01 0.02 0.00 0.00 0.00 0.00 0.00 0.00 0.00 0.00
0.00 0.00 0.00 0.00 0.00 0.00 0.00 0.01 0.01 0.07 0.27 0.29 0.10 0.03 0.00 0.00 0.02 0.00 0.00 0.00 0.00 0.00 0.00 0.00 0.00 0.00 0.00 0.00 0.01 0.01 0.00 0.01 0.02 0.05 0.13 0.01 0.01 0.00 0.00 0.00 0.01 0.00 0.00 0.00 0.00 0.00 0.00 0.00 0.00
0.00 0.00 0.00 0.00 0.00 0.00 0.00 0.00 0.00 0.04 0.11 0.37 0.33 0.10 0.01 0.02 0.04 0.01 0.01 0.00 0.00 0.00 0.00 0.00 0.00 0.00 0.00 0.00 0.00 0.01 0.00 0.01 0.03 0.04 0.07 0.01 0.00 0.00 0.00 0.00 0.01 0.01 0.00 0.00 0.00 0.00 0.00 0.00 0.00
0.00 0.00 0.00 0.00 0.00 0.00 0.00 0.00 0.02 0.02 0.05 0.21 0.44 0.12 0.04 0.02 0.05 0.02 0.01 0.01 0.00 0.00 0.00 0.00 0.00 0.00 0.00 0.00 0.00 0.04 0.03 0.04 0.04 0.01 0.00 0.04 0.11 0.05 0.01 0.02 0.02 0.00 0.00 0.00 0.00 0.00 0.00 0.00 0.00
0.00 0.00 0.00 0.00 0.00 0.00 0.00 0.00 0.00 0.00 0.00 0.03 0.05 0.04 0.10 0.08 0.09 0.09 0.09 0.01 0.01 0.03 0.00 0.00 0.00 0.00 0.00 0.00 0.00 0.01 0.05 0.03 0.02 0.02 0.04 0.07 0.08 0.03 0.01 0.02 0.04 0.02 0.00 0.00 0.00 0.00 0.00 0.00 0.00
0.00 0.00 0.00 0.00 0.00 0.00 0.00 0.00 0.02 0.04 0.05 0.02 0.04 0.05 0.06 0.18 0.25 0.16 0.10 0.04 0.02 0.05 0.00 0.00 0.00 0.00 0.00 0.00 0.01 0.01 0.01 0.02 0.01 0.03 0.05 0.02 0.04 0.01 0.01 0.03 0.04 0.03 0.02 0.00 0.00 0.00 0.00 0.00 0.00
0.00 0.00 0.00 0.00 0.00 0.00 0.02 0.03 0.09 0.08 0.06 0.05 0.01 0.00 0.01 0.08 0.40 0.51 0.53 0.16 0.11 0.13 0.05 0.09 0.04 0.01 0.01 0.00 0.01 0.03 0.01 0.02 0.02 0.04 0.02 0.01 0.03 0.07 0.06 0.06 0.03 0.03 0.02 0.00 0.00 0.01 0.01 0.00 0.00
0.00 0.00 0.00 0.00 0.00 0.00 0.03 0.07 0.08 0.10 0.05 0.01 0.00 0.00 0.00 0.03 0.14 0.41 0.54 0.84 0.23 0.22 0.10 0.24 0.31 0.24 0.11 0.04 0.05 0.05 0.05 0.02 0.02 0.03 0.02 0.04 0.06 0.08 0.02 0.06 0.00 0.02 0.03 0.01 0.00 0.01 0.00 0.00 0.00
0.00 0.00 0.00 0.00 0.00 0.00 0.01 0.02 0.05 0.08 0.02 0.00 0.01 0.00 0.00 0.03 0.05 0.02 0.05 0.15 0.30 0.47 0.24 0.35 0.86 0.37 0.22 0.16 0.15 0.08 0.05 0.05 0.06 0.02 0.01 0.00 0.02 0.03 0.02 0.00 0.00 0.01 0.02 0.03 0.02 0.00 0.00 0.00 0.00
MSLP
1010.71 1011.09 1011.44 1011.39 1012.03 1012.06 1011.94 1012.56 1011.56 1010.25 1009.35 1007.50 1008.59 1008.27 1009.19 1009.89 1010.85 1013.36 1014.09 1014.79 1015.52 1016.22 1016.65 1016.85 1017.02 1017.19 1017.38 1017.47 1017.51 1017.56 1017.53 1017.58 1017.65 1017.74 1017.84 1017.92 1018.05 1018.10 1018.12 1018.25 1018.34 1018.44 1018.46 1018.54 1018.61 1018.71 1018.74 1018.85 1019.00
1010.33 1010.72 1011.11 1010.74 1011.33 1011.55 1011.72 1011.87 1011.02 1009.84 1008.90 1007.93 1008.35 1008.70 1009.43 1011.22 1010.92 1012.95 1013.95 1014.90 1015.48 1016.25 1016.69 1017.02 1017.29 1017.40 1017.48 1017.54 1017.62 1017.68 1017.78 1017.86 1018.00 1018.09 1018.11 1018.19 1018.29 1018.31 1018.34 1018.37 1018.48 1018.61 1018.73 1018.89 1018.95 1019.04 1019.14 1019.25 1019.38
1010.39 1010.19 1010.41 1010.54 1010.78 1010.58 1011.51 1011.18 1010.32 1009.83 1008.13 1007.72 1008.21 1008.57 1009.98 1011.54 1012.33 1012.78 1013.98 1014.84 1015.58 1016.27 1016.78 1017.10 1017.36 1017.54 1017.61 1017.67 1017.77 1017.89 1017.98 1018.06 1018.18 1018.35 1018.39 1018.37 1018.49 1018.55 1018.57 1018.61 1018.79 1018.98 1019.10 1019.23 1019.28 1019.23 1019.29 1019.51 1019.66
1009.96 1009.90 1010.12 1010.39 1010.23 1009.54 1010.35 1010.72 1010.57 1009.83 1009.15 1008.77 1008.41 1009.60 1010.68 1011.31 1011.97 1013.03 1013.98 1014.56 1015.66 1016.55 1017.06 1017.26 1017.44 1017.59 1017.73 1017.82 1017.97 1018.08 1018.22 1018.31 1018.41 1018.53 1018.60 1018.68 1018.65 1018.76 1018.80 1018.88 1019.00 1019.13 1019.29 1019.40 1019.44 1019.37 1019.47 1019.70 1019.80
1009.65 1009.89 1010.27 1010.14 1010.28 1010.85 1010.84 1010.94 1011.05 1010.39 1010.00 1009.21 1008.94 1010.59 1011.08 1011.69 1012.29 1012.97 1013.94 1014.95 1015.69 1016.70 1017.18 1017.42 1017.59 1017.73 1017.88 1017.99 1018.18 1018.31 1018.47 1018.59 1018.65 1018.76 1018.86 1018.89 1018.93 1018.99 1019.03 1019.11 1019.16 1019.26 1019.46 1019.66 1019.64 1019.66 1019.84 1019.99 1019.72
1009.78 1010.07 1010.17 1010.04 1010.65 1011.25 1011.47 1011.00 1010.86 1010.21 1009.95 1009.60 1009.86 1010.46 1011.39 1011.67 1012.47 1013.18 1014.08 1015.06 1015.60 1016.55 1017.18 1017.47 1017.77 1017.93 1018.10 1018.20 1018.37 1018.62 1018.78 1018.82 1018.88 1019.06 1019.25 1019.24 1019.16 1019.28 1019.29 1019.28 1019.35 1019.48 1019.63 1019.79 1019.89 1019.93 1020.13 1020.27 1020.09
1009.69 1010.06 1010.02 1009.87 1010.43 1010.93 1011.39 1011.40 1010.97 1010.18 1009.81 1009.52 1009.95 1010.38 1011.62 1011.99 1012.49 1013.28 1014.34 1015.12 1015.75 1016.43 1017.14 1017.65 1017.91 1018.08 1018.30 1018.44 1018.55 1018.81 1018.92 1019.02 1019.11 1019.21 1019.37 1019.52 1019.55 1019.48 1019.51 1019.54 1019.55 1019.66 1019.78 1019.98 1020.10 1020.14 1020.21 1020.37 1020.47
1009.12 1009.80 1009.43 1009.31 1009.68 1010.58 1010.92 1011.23 1011.24 1010.51 1010.09 1009.63 1009.95 1010.68 1011.31 1012.36 1012.94 1013.53 1014.24 1015.30 1015.89 1016.52 1016.92 1017.58 1017.92 1018.22 1018.44 1018.64 1018.69 1018.87 1019.16 1019.23 1019.30 1019.43 1019.57 1019.60 1019.83 1019.78 1019.73 1019.72 1019.70 1019.81 1020.03 1020.28 1020.42 1020.50 1020.52 1020.61 1020.64
1008.77 1009.61 1008.94 1008.65 1009.09 1009.87 1010.51 1010.77 1011.12 1011.13 1010.27 1010.14 1009.84 1010.39 1010.87 1012.01 1013.02 1013.93 1014.57 1015.33 1016.06 1016.59 1017.00 1017.35 1017.72 1018.13 1018.53 1018.71 1018.86 1019.11 1019.36 1019.34 1019.49 1019.62 1019.87 1019.93 1020.22 1020.16 1020.06 1019.99 1020.06 1020.24 1020.39 1020.59 1020.69 1020.85 1020.93 1020.89 1020.89
1010.57 1010.19 1008.43 1007.41 1007.85 1009.09 1009.95 1010.23 1011.07 1011.45 1010.56 1010.10 1010.20 1010.57 1010.90 1012.33 1013.15 1013.86 1014.52 1015.15 1015.81 1016.38 1017.01 1017.21 1017.63 1017.98 1018.27 1018.54 1019.02 1019.35 1019.48 1019.72 1019.87 1020.05 1020.36 1020.37 1020.60 1020.46 1020.47 1020.46 1020.42 1020.50 1020.63 1020.71 1020.61 1020.65 1020.73 1020.84 1020.93
1010.59 1009.90 1008.01 1007.45 1007.56 1008.45 1009.17 1010.14 1011.30 1011.52 1010.89 1009.73 1009.89 1010.36 1010.86 1012.26 1012.78 1013.58 1014.11 1014.38 1015.31 1016.34 1016.73 1017.15 1017.28 1017.71 1018.13 1018.56 1019.10 1019.35 1019.65 1019.90 1019.96 1020.01 1020.60 1020.58 1020.79 1020.66 1020.75 1020.95 1020.91 1020.83 1020.90 1021.08 1020.80 1020.42 1020.90 1020.91 1020.91
1008.86 1008.48 1007.72 1007.07 1007.10 1007.75 1008.46 1010.00 1011.09 1011.05 1011.08 1009.82 1009.78 1010.39 1010.86 1011.97 1012.57 1013.53 1013.72 1014.42 1014.92 1016.15 1016.74 1016.82 1017.06 1017.43 1018.21 1018.55 1018.93 1019.27 1019.52 1019.65 1019.82 1019.98 1020.09 1020.44 1020.78 1020.67 1020.98 1021.31 1021.29 1021.11 1021.39 1021.35 1020.91 1020.86 1021.18 1021.27 1020.90
1007.77 1007.28 1006.80 1006.24 1006.61 1007.38 1008.32 1009.38 1010.60 1011.31 1010.26 1009.94 1009.91 1010.46 1010.99 1011.41 1012.07 1012.76 1013.41 1014.30 1015.32 1016.09 1016.56 1016.82 1016.98 1017.50 1017.85 1018.11 1018.66 1019.02 1019.33 1019.64 1019.56 1020.00 1020.31 1020.73 1020.56 1021.06 1020.95 1021.46 1021.44 1021.38 1021.32 1021.13 1021.19 1021.21 1021.16 1020.66 1020.47
1007.38 1006.83 1006.12 1007.06 1006.51 1007.10 1008.15 1009.25 1009.61 1010.38 1009.91 1009.91 1010.30 1010.63 1010.96 1011.43 1011.78 1012.40 1013.21 1014.33 1015.39 1015.87 1016.61 1016.92 1017.21 1017.35 1017.66 1018.05 1018.51 1018.97 1019.13 1019.33 1019.29 1019.71 1020.03 1020.75 1020.61 1020.85 1020.81 1021.19 1021.04 1021.02 1021.00 1020.94 1021.17 1020.96 1021.03 1020.86 1020.57
1006.05 1006.53 1005.63 1006.19 1006.38 1006.93 1008.16 1009.90 1009.86 1009.97 1010.08 1010.17 1010.39 1010.66 1010.99 1011.35 1011.83 1012.40 1013.02 1014.39 1015.34 1015.84 1016.41 1017.14 1017.42 1017.44 1017.81 1018.30 1018.36 1018.83 1018.95 1019.30 1019.56 1019.75 1019.69 1020.17 1020.60 1020.79 1020.89 1020.94 1021.15 1021.12 1021.01 1021.05 1021.05 1021.06 1021.02 1020.89 1020.99
1005.65 1006.07 1005.94 1004.22 1004.92 1006.21 1007.02 1009.26 1010.98 1010.89 1010.43 1010.32 1010.52 1010.75 1011.06 1011.64 1011.86 1012.66 1013.24 1014.03 1015.26 1016.08 1016.53 1017.00 1017.35 1017.67 1017.94 1018.30 1018.58 1018.88 1019.25 1019.79 1020.08 1020.29 1020.32 1020.37 1020.33 1020.61 1020.94 1020.85 1020.91 1021.06 1021.10 1021.15 1021.23 1021.13 1021.53 1021.54 1021.52
1004.72 1005.24 1004.96 1004.75 1004.61 1005.77 1007.22 1010.17 1009.75 1011.36 1011.64 1010.92 1010.65 1010.83 1011.12 1011.60 1012.11 1012.74 1013.54 1014.05 1015.01 1015.71 1016.44 1017.04 1017.41 1017.72 1018.24 1018.32 1018.83 1019.14 1019.49 1019.55 1019.91 1020.30 1020.41 1020.40 1020.28 1020.60 1020.82 1020.69 1020.93 1020.91 1020.60 1020.98 1021.51 1021.77 1021.81 1021.76 1021.62
1005.07 1004.79 1004.54 1004.70 1005.26 1005.87 1008.63 1011.16 1012.09 1011.85 1011.54 1010.92 1010.78 1010.79 1011.19 1011.84 1012.42 1012.76 1013.43 1014.07 1014.66 1015.37 1015.96 1016.95 1017.55 1017.90 1018.30 1018.57 1019.03 1019.27 1019.50 1019.92 1020.11 1020.18 1020.63 1020.31 1020.37 1020.41 1020.47 1020.66 1021.09 1020.98 1021.06 1021.24 1021.48 1021.77 1021.43 1021.43 1021.59
1004.77 1004.61 1004.55 1004.24 1005.39 1007.50 1009.07 1011.61 1011.44 1010.64 1010.74 1010.67 1010.42 1010.65 1011.02 1011.90 1012.38 1012.85 1013.41 1014.14 1014.74 1015.31 1015.99 1016.96 1017.59 1017.94 1018.34 1018.96 1019.39 1019.64 1019.77 1020.13 1020.38 1020.36 1020.66 1020.39 1020.57 1020.54 1020.62 1020.81 1021.21 1021.28 1021.57 1021.54 1021.25 1021.71 1021.85 1021.78 1021.66
1004.33 1004.36 1004.50 1004.60 1005.99 1007.46 1009.93 1010.81 1010.97 1009.86 1010.17 1010.07 1010.21 1010.57 1010.93 1011.74 1012.37 1012.98 1013.43 1013.97 1014.78 1015.49 1015.97 1016.86 1017.50 1017.94 1018.33 1018.78 1019.29 1019.55 1019.79 1020.03 1020.12 1020.42 1020.37 1020.37 1020.65 1020.50 1020.62 1021.39 1021.20 1020.62 1021.43 1021.61 1021.38 1021.45 1021.86 1021.86 1021.68
1003.80 1003.87 1004.23 1004.72 1006.00 1006.94 1010.56 1011.32 1011.12 1010.88 1010.19 1010.01 1010.34 1010.71 1011.00 1011.69 1012.39 1013.05 1013.50 1014.06 1014.63 1015.40 1015.92 1016.74 1017.34 1017.91 1018.25 1018.54 1019.30 1019.61 1019.83 1020.48 1020.70 1020.68 1020.59 1020.34 1020.24 1020.40 1020.44 1020.90 1021.14 1021.32 1021.47 1021.61 1021.48 1021.42 1021.67 1022.08 1021.62
1003.32 1002.99 1003.31 1004.55 1005.86 1007.41 1008.63 1010.03 1010.33 1009.93 1009.91 1010.09 1010.38 1010.83 1011.41 1011.93 1012.54 1012.96 1013.22 1013.94 1014.56 1015.23 1015.62 1016.45 1017.15 1017.73 1018.06 1018.56 1019.09 1019.31 1019.84 1020.21 1020.46 1020.34 1020.25 1020.14 1020.13 1020.24 1020.31 1020.50 1021.05 1021.29 1021.30 1021.69 1021.66 1021.13 1021.63 1021.87 1022.05
1002.74 1002.45 1002.99 1004.63 1005.90 1006.65 1007.89 1008.93 1008.69 1009.46 1010.35 1010.90 1011.09 1011.31 1011.62 1011.90 1012.42 1012.84 1013.17 1013.60 1014.25 1014.99 1015.47 1016.08 1016.97 1017.59 1017.85 1018.31 1018.86 1019.16 1019.74 1019.98 1020.26 1020.20 1020.33 1020.30 1020.00 1020.06 1020.39 1020.57 1020.94 1021.12 1021.30 1021.37 1021.41 1021.44 1021.54 1021.67 1022.03
1002.22 1002.52 1003.07 1004.02 1005.37 1006.58 1006.41 1007.96 1008.67 1009.33 1009.37 1011.07 1012.54 1013.03 1012.14 1012.16 1012.35 1012.88 1013.15 1013.54 1014.11 1014.81 1015.27 1016.05 1016.81 1017.45 1017.74 1018.06 1018.53 1018.87 1019.57 1020.05 1020.27 1020.55 1020.74 1020.36 1020.33 1020.08 1020.08 1020.40 1020.86 1021.07 1021.15 1021.18 1021.41 1021.42 1021.40 1021.58 1021.89
1002.39 1003.39 1004.21 1004.78 1005.71 1006.51 1006.22 1007.17 1008.56 1008.95 1010.39 1011.30 1011.95 1012.08 1012.63 1012.65 1012.30 1012.45 1013.02 1013.75 1014.28 1014.92 1015.34 1016.12 1016.73 1017.39 1017.72 1018.07 1018.33 1018.65 1019.19 1019.35 1019.85 1020.24 1020.58 1020.57 1020.45 1020.51 1020.35 1020.43 1020.85 1020.98 1021.08 1021.24 1021.36 1021.59 1021.46 1021.49 1021.77
1002.81 1003.72 1004.46 1004.99 1005.86 1006.43 1006.32 1007.96 1008.88 1009.07 1009.84 1011.35 1011.97 1011.14 1012.20 1012.50 1013.07 1012.78 1012.93 1013.42 1014.13 1014.59 1015.13 1015.92 1016.66 1017.25 1017.73 1018.14 1018.34 1018.55 1018.91 1019.31 1019.69 1019.81 1020.12 1020.40 1020.36 1020.35 1020.01 1020.36 1020.63 1020.75 1020.91 1021.08 1021.14 1021.27 1021.48 1021.52 1021.56
1002.99 1003.43 1003.57 1005.05 1005.50 1006.66 1007.72 1009.27 1009.94 1010.79 1012.09 1012.74 1013.14 1013.24 1014.04 1014.15 1014.06 1014.33 1014.33 1014.34 1014.68 1014.60 1015.18 1015.89 1016.71 1017.23 1017.70 1018.01 1018.38 1018.48 1018.82 1019.22 1019.66 1019.71 1019.86 1019.81 1020.03 1020.12 1020.30 1020.46 1020.66 1020.81 1020.89 1020.89 1021.17 1021.44 1021.40 1021.45 1021.53
1002.93 1003.22 1003.94 1005.00 1006.54 1007.52 1009.05 1009.85 1011.01 1012.60 1013.16 1014.23 1015.05 1015.08 1015.59 1015.88 1015.41 1014.87 1016.18 1015.92 1015.89 1015.87 1015.97 1016.09 1016.65 1017.02 1017.39 1017.77 1018.20 1018.33 1018.55 1018.92 1019.16 1019.59 1019.72 1019.94 1019.98 1019.95 1019.94 1020.24 1020.42 1020.74 1020.76 1020.67 1020.96 1021.34 1021.43 1021.45 1021.44
1003.38 1003.65 1004.43 1005.34 1006.56 1008.01 1009.82 1012.10 1013.10 1013.44 1014.15 1015.07 1016.14 1016.70 1017.09 1017.28 1017.38 1017.04 1017.10 1016.03 1016.41 1017.51 1017.37 1017.35 1017.63 1017.79 1017.77 1017.46 1017.84 1018.30 1018.41 1018.55 1018.87 1019.12 1019.23 1019.58 1019.80 1020.13 1020.02 1020.13 1020.57 1020.68 1020.75 1020.64 1021.07 1021.33 1021.58 1021.61 1021.51
1003.34 1003.87 1004.61 1006.23 1007.21 1008.77 1010.58 1013.07 1013.37 1014.23 1014.96 1015.72 1016.73 1017.54 1018.30 1018.80 1018.82 1018.30 1018.00 1017.63 1016.89 1017.61 1018.19 1018.33 1017.41 1018.82 1019.20 1018.79 1018.21 1017.79 1017.77 1018.05 1018.45 1018.68 1018.73 1018.90 1019.23 1019.76 1020.20 1020.23 1020.36 1020.66 1020.59 1020.70 1020.98 1021.31 1021.32 1021.37 1021.49
Thickness
5805 5801 5798 5791 5760 5755 5737 5748 5762 5769 5775 5810 5802 5801 5790 5793 5778 5744 5777 5774 5769 5764 5761 5759 5758 5756 5755 5754 5753 5752 5752 5752 5752 5750 5749 5749 5748 5748 5749 5750 5751 5749 5747 5745 5744 5743 5743 5743 5743
5808 5804 5796 5786 5754 5740 5737 5764 5766 5777 5794 5810 5806 5800 5789 5768 5793 5778 5774 5776 5771 5766 5763 5760 5758 5757 5756 5755 5753 5753 5752 5750 5748 5747 5746 5746 5746 5747 5749 5750 5749 5747 5744 5741 5740 5740 5741 5741 5741
5809 5809 5784 5771 5761 5737 5748 5771 5777 5786 5811 5808 5799 5809 5789 5771 5784 5785 5784 5779 5772 5768 5765 5762 5759 5758 5757 5756 5755 5754 5752 5751 5747 5744 5743 5744 5745 5746 5748 5749 5748 5745 5742 5738 5736 5739 5741 5741 5742
5806 5799 5792 5765 5762 5764 5776 5777 5777 5784 5797 5803 5806 5785 5793 5798 5791 5791 5789 5783 5774 5769 5766 5764 5762 5760 5759 5758 5757 5756 5754 5751 5748 5745 5744 5743 5745 5746 5748 5748 5748 5745 5742 5738 5737 5741 5743 5744 5744
5809 5793 5767 5771 5771 5772 5775 5773 5774 5781 5777 5794 5803 5777 5779 5794 5798 5797 5790 5782 5776 5771 5766 5765 5763 5762 5761 5760 5758 5757 5755 5753 5750 5747 5746 5746 5746 5747 5748 5748 5747 5747 5744 5742 5742 5744 5744 5744 5747
5785 5789 5767 5764 5766 5764 5764 5772 5780 5785 5788 5796 5789 5783 5779 5800 5795 5795 5791 5783 5779 5773 5768 5766 5764 5763 5762 5761 5759 5757 5755 5753 5751 5748 5746 5746 5748 5748 5748 5749 5748 5747 5746 5745 5745 5746 5745 5745 5747
5784 5775 5768 5774 5769 5766 5765 5776 5777 5788 5791 5793 5799 5778 5784 5791 5797 5797 5791 5785 5780 5776 5770 5766 5765 5764 5763 5761 5759 5756 5757 5756 5754 5752 5749 5747 5747 5749 5749 5749 5749 5748 5748 5747 5746 5747 5747 5746 5746
5799 5781 5780 5784 5775 5762 5778 5778 5785 5785 5787 5810 5807 5774 5774 5787 5794 5796 5794 5785 5782 5777 5774 5769 5767 5766 5764 5762 5760 5758 5756 5756 5756 5755 5752 5751 5748 5749 5751 5752 5752 5751 5749 5747 5745 5745 5746 5747 5747
5811 5771 5778 5784 5779 5776 5785 5779 5791 5790 5797 5796 5806 5797 5801 5802 5796 5790 5786 5783 5779 5779 5777 5773 5771 5769 5766 5764 5760 5758 5756 5758 5757 5755 5753 5752 5748 5749 5752 5753 5752 5750 5749 5746 5746 5744 5744 5745 5747
5771 5763 5785 5809 5804 5785 5787 5791 5788 5771 5790 5793 5797 5804 5807 5800 5793 5784 5783 5780 5780 5780 5778 5777 5774 5772 5771 5767 5762 5759 5758 5757 5757 5754 5751 5750 5750 5749 5749 5750 5753 5752 5749 5750 5752 5750 5749 5748 5750
5765 5762 5803 5809 5810 5805 5798 5792 5788 5780 5779 5800 5794 5797 5804 5795 5794 5788 5786 5789 5787 5782 5784 5780 5779 5777 5774 5771 5765 5761 5758 5757 5757 5756 5750 5752 5750 5752 5752 5749 5750 5751 5750 5752 5755 5758 5752 5752 5754
5778 5793 5805 5812 5818 5811 5803 5796 5781 5780 5787 5811 5811 5807 5805 5797 5795 5788 5790 5792 5791 5785 5783 5784 5782 5782 5776 5773 5769 5764 5762 5762 5761 5760 5758 5757 5755 5758 5754 5751 5751 5752 5752 5753 5758 5759 5753 5751 5756
5786 5802 5817 5824 5820 5815 5814 5798 5786 5782 5795 5814 5813 5807 5802 5800 5800 5802 5798 5798 5790 5784 5786 5785 5786 5781 5780 5778 5774 5769 5766 5764 5764 5759 5755 5758 5760 5757 5759 5754 5755 5755 5757 5758 5757 5757 5758 5760 5764
5796 5804 5812 5809 5816 5816 5802 5798 5802 5796 5810 5809 5805 5801 5804 5801 5802 5801 5798 5793 5789 5787 5786 5785 5785 5785 5783 5782 5778 5773 5773 5770 5772 5769 5764 5758 5762 5760 5762 5758 5760 5762 5762 5764 5763 5764 5763 5763 5766
5809 5792 5806 5807 5814 5809 5807 5780 5789 5804 5806 5801 5800 5801 5803 5804 5804 5800 5802 5794 5791 5789 5790 5785 5785 5785 5783 5781 5780 5774 5776 5773 5774 5773 5771 5768 5764 5762 5764 5763 5763 5765 5766 5766 5766 5765 5765 5768 5767
5796 5794 5775 5823 5827 5820 5815 5773 5777 5792 5797 5796 5799 5800 5801 5801 5802 5801 5803 5797 5797 5790 5789 5788 5788 5786 5783 5782 5780 5776 5776 5772 5770 5770 5770 5768 5768 5764 5765 5766 5768 5766 5766 5768 5768 5767 5765 5766 5767
5795 5770 5790 5800 5830 5820 5810 5769 5755 5788 5787 5790 5798 5800 5799 5799 5800 5799 5802 5799 5796 5793 5790 5787 5787 5786 5784 5782 5778 5778 5774 5775 5773 5772 5772 5770 5771 5767 5767 5769 5770 5770 5773 5771 5768 5767 5766 5766 5769
5769 5779 5792 5790 5815 5815 5775 5760 5767 5771 5784 5795 5798 5800 5797 5796 5796 5799 5802 5799 5796 5795 5794 5789 5787 5786 5784 5782 5778 5777 5778 5774 5771 5774 5771 5772 5771 5770 5774 5773 5770 5772 5772 5773 5772 5770 5772 5773 5772
5791 5790 5791 5815 5815 5777 5767 5755 5772 5790 5787 5797 5801 5799 5799 5792 5799 5800 5801 5799 5795 5795 5792 5788 5785 5784 5783 5779 5775 5774 5775 5774 5773 5772 5772 5774 5773 5773 5774 5774 5772 5772 5771 5771 5777 5773 5772 5773 5776
5790 5779 5786 5806 5805 5784 5764 5761 5773 5794 5789 5800 5798 5797 5800 5794 5792 5797 5798 5800 5794 5791 5791 5787 5785 5784 5783 5781 5779 5777 5777 5777 5775 5772 5774 5774 5773 5773 5773 5770 5773 5779 5773 5773 5777 5777 5773 5774 5778
5783 5776 5781 5782 5790 5792 5761 5753 5761 5776 5795 5799 5798 5799 5799 5795 5788 5790 5794 5797 5795 5789 5788 5787 5786 5783 5783 5783 5780 5777 5776 5773 5772 5772 5774 5774 5774 5773 5774 5773 5774 5773 5774 5774 5777 5778 5776 5771 5779
5761 5805 5808 5787 5773 5748 5771 5729 5756 5778 5784 5788 5793 5789 5788 5788 5792 5791 5795 5792 5793 5790 5792 5789 5787 5784 5783 5783 5780 5779 5774 5772 5775 5775 5779 5779 5777 5776 5776 5776 5776 5775 5777 5776 5777 5781 5779 5777 5773
5779 5811 5807 5787 5771 5775 5762 5749 5762 5780 5769 5771 5782 5784 5789 5791 5789 5788 5792 5796 5797 5794 5792 5790 5786 5783 5783 5782 5782 5781 5777 5778 5778 5779 5779 5779 5781 5779 5776 5775 5774 5776 5778 5778 5780 5780 5780 5780 5778
5808 5800 5795 5790 5777 5745 5776 5765 5754 5763 5780 5774 5758 5763 5784 5789 5788 5786 5793 5794 5792 5793 5792 5789 5784 5781 5781 5781 5783 5783 5778 5775 5776 5775 5774 5779 5780 5781 5782 5778 5778 5778 5778 5780 5778 5779 5783 5782 5781
5790 5766 5726 5733 5724 5737 5787 5778 5757 5769 5772 5768 5766 5765 5774 5783 5789 5793 5791 5788 5788 5786 5787 5786 5784 5779 5779 5778 5780 5783 5781 5780 5777 5775 5775 5777 5778 5777 5782 5781 5780 5780 5780 5779 5779 5779 5783 5783 5781
5765 5758 5724 5719 5719 5739 5787 5741 5748 5779 5783 5773 5776 5787 5786 5785 5779 5786 5792 5795 5792 5788 5788 5785 5782 5779 5778 5775 5778 5782 5782 5778 5777 5779 5779 5776 5777 5780 5784 5781 5781 5783 5782 5780 5781 5781 5782 5783 5785
5759 5750 5782 5756 5765 5749 5749 5750 5758 5760 5752 5760 5765 5776 5768 5766 5769 5775 5778 5778 5786 5788 5786 5780 5777 5777 5776 5774 5774 5779 5780 5778 5774 5776 5778 5780 5782 5782 5782 5781 5780 5781 5782 5783 5781 5780 5782 5784 5785
5764 5785 5747 5745 5723 5730 5732 5736 5723 5726 5739 5740 5741 5748 5751 5749 5755 5766 5758 5768 5772 5775 5777 5778 5775 5773 5773 5773 5771 5775 5779 5778 5777 5777 5776 5778 5780 5782 5784 5781 5782 5781 5783 5785 5782 5780 5781 5783 5786
5745 5740 5754 5752 5743 5714 5703 5696 5718 5719 5727 5726 5728 5731 5733 5734 5735 5740 5744 5746 5761 5756 5760 5764 5763 5765 5768 5775 5772 5771 5774 5775 5775 5776 5779 5778 5779 5778 5780 5781 5779 5781 5783 5785 5782 5780 5779 5781 5783
5757 5748 5747 5714 5723 5718 5702 5689 5721 5719 5722 5724 5719 5720 5719 5718 5721 5732 5738 5746 5754 5746 5748 5752 5749 5753 5753 5761 5769 5772 5776 5777 5774 5777 5782 5786 5783 5778 5776 5779 5779 5779 5784 5784 5783 5779 5781 5782 5782